Home   Weather   Allschwil   Past weeks

Flag for Switzerland Past Weather in Allschwil, Basel-Land, Switzerland — Yesterday and Last 2 Weeks

Now
30 °F

Passing clouds.


Feels Like: 25 °F
Forecast: 18 / 31 °F
Wind: 5 mph from Northeast

Location: Bale-Mulhouse

Current Time: Jan 22, 2017 at 5:36:17 pm

Latest Report: Jan 22, 2017 at 4:00 pm


Visibility: 6 mi

Pressure: 30.28 "Hg

Humidity: 69%

Dew Point: 21 °F

Location of AllschwilLocation

Past Weather in Allschwil — Graph

°F

Allschwil Temperature Yesterday

Maximum temperature yesterday: 31 °F (at 2:00 pm)
Minimum temperature yesterday: 19 °F (at 8:00 am)
Average temperature yesterday: 23 °F

High & Low Weather Summary for the Past Weeks

 TemperatureHumidityPressure
High50 °F (Jan 12, 11:00 pm)98% (Jan 10, 2:00 pm)30.58 "Hg (Jan 10, 2:00 pm)
Low13 °F (Jan 22, 6:00 am)51% (Jan 18, 3:00 pm)29.47 "Hg (Jan 12, 11:00 pm)
Average29 °F82%30.27 "Hg
* Reported Jan 7 4:00 pm — Jan 22 4:00 pm, Allschwil, Weather by CustomWeather, © 2017

Note: Actual official high and low records may vary slightly from our data, if they occured in-between our weather recording intervals... More about our weather records

Advertising

Allschwil Weather History for the Previous 24 Hours

Scroll right to see more
 ConditionsComfort  
Time TempWeatherWind HumidityBarometerVisibility
4:00 pm
Sun, Jan 22
30 °FPassing clouds.5 mph69%30.28 "Hg6 mi
3:00 pm31 °FChilly.5 mph66%30.27 "Hg5 mi
2:00 pm30 °FPassing clouds.6 mph69%30.28 "Hg6 mi
1:00 pm29 °FPassing clouds.6 mph70%30.30 "Hg6 mi
12:00 pm28 °FPassing clouds.3 mph77%30.33 "Hg5 mi
11:00 am26 °FPassing clouds.6 mph83%30.35 "Hg4 mi
10:00 am24 °FFog.7 mph90%30.35 "Hg3 mi
9:00 am17 °FFog.2 mph88%30.37 "Hg3 mi
8:00 am19 °FFog.5 mph90%30.35 "Hg3 mi
7:00 am15 °FFog.6 mph93%30.36 "Hg2 mi
6:00 am13 °FFog.No wind91%30.37 "Hg2 mi
5:00 am14 °FFog.1 mph89%30.39 "Hg2 mi
4:00 am14 °FCold.1 mph86%30.40 "Hg2 mi
3:00 am16 °FCold.2 mph92%30.40 "Hg2 mi
2:00 am17 °FCold.1 mph89%30.41 "Hg2 mi
1:00 am18 °FCold.2 mph91%30.42 "Hg2 mi
12:00 am18 °FFog.3 mph89%30.43 "Hg2 mi
11:00 pm
Sat, Jan 21
20 °FFog.2 mph89%30.42 "Hg2 mi
10:00 pm22 °FPassing clouds.8 mph88%30.42 "Hg3 mi
9:00 pm22 °FPassing clouds.7 mph88%30.42 "Hg3 mi
8:00 pm21 °FClear.2 mph85%30.42 "Hg4 mi
7:00 pm22 °FClear.3 mph83%30.41 "Hg4 mi
6:00 pm25 °FClear.6 mph81%30.40 "Hg3 mi
5:00 pm27 °FSunny.6 mph75%30.38 "Hg4 mi
Weather by CustomWeather, © 2017

See weather overviewHow to use our weather pages